Location: Holbach
(51.5399°N, 10.6036°E)
Time: 01:16:54
(UTC+00:00)

Landsat 7 - Pass Details

Date: 18 September 2020
Orbit: 701 x 703 km, 98.1° (Epoch: 23 October)

Event Time Altitude Azimuth Distance (km) Brightness Sun altitude
Exits shadow 19:25:44 34° 88° (E) 1,157 4.5 -18.9°
Maximum altitude 19:26:34 37° 65° (ENE) 1,100 4.5 -19.0°
Drops below altitude 10° 19:30:56 10° 359° (N) 2,184 6.7 -19.6°
Sets 19:33:19 0° 352° (N) 3,107 7.7 -19.9°
